Weather Roundup
Issued by NWS Springfield, MO

Home | Current Version | Previous Version | Text Only | Print | Product List | Glossary On
Versions: 1 2 3 4 5 6 7 8 9 10 11 12 13 14 15 16 17 18 19 20 21 22 23 24 25 26 27 28 29 30 31 32 33 34 35 36 37 38 39 40 41 42 43 44 45 46 47 48 49 50
000
NZUS99 KSGF 251307
HRRSGF

HOURLY WEATHER
NATIONAL WEATHER SERVICE SPRINGFIELD MO
800 AM CDT THU AUG 25 2016

......SGF CWA......

CITY           SKY/WX    TMP DP  RH WIND       PRES   REMARKS
SPRINGFIELD    SUNNY     73  68  84 S9        30.11R
JOPLIN         SUNNY     76  68  76 S9        30.08R
WEST PLAINS    SUNNY     74  69  85 SW5       30.14S
ROLLA          SUNNY     74  69  85 S10       30.07S
OSAGE BEACH    MOSUNNY   74  70  87 S8        30.07R
BRANSON        MOSUNNY   73  70  88 S5        30.13S

......SURROUNDING SGF CWA......

CITY           SKY/WX    TMP DP  RH WIND       PRES   REMARKS
CHANUTE        PTSUNNY   71  67  87 S5        30.06R
PARSONS        MOSUNNY   72  67  84 S5        30.06S
COFFEYVILLE    PTSUNNY   73  67  81 S8        30.05S
EMPORIA        CLOUDY    69  66  90 CALM      30.04F
GROVE OK       MOSUNNY   73  70  88 SE5       30.10R
ROGERS AR      SUNNY     73  69  87 S6        30.14R
SILOAM SPRINGS SUNNY     72  63  73 CALM      30.14R
HARRISON AR    SUNNY     74  70  87 S8        30.14S
NEAR YELLVILLE SUNNY     72  66  83 E3        30.10R

......KANSAS AND MISSOURI......

CITY           SKY/WX    TMP DP  RH WIND       PRES   REMARKS
KANSAS CTY INT TSTM      71  68  90 W9        30.10R FOG
DOWNTOWN KC    LGT RAIN  73  70  90 N3        30.05R
COLUMBIA       SUNNY     72  69  90 SW6       30.05R
SEDALIA        SUNNY     72  69  90 S7        30.07R
ST JOSEPH      LGT RAIN  69  67  93 NW6       30.05R
ST LOUIS       MOSUNNY   80  70  71 S7        30.05F
SPIRIT OF STL  SUNNY     77  72  84 CALM      30.04S
KIRKSVILLE     CLOUDY    71  69  93 CALM      30.04R
WICHITA        CLOUDY    70  67  90 NW13      30.06R
TOPEKA         LGT RAIN  71  70  96 SE5       30.05S
OLATHE         TSTM      69  69 100 W9        30.07R FOG

......TENNESSEE......

CITY           SKY/WX    TMP DP  RH WIND       PRES   REMARKS
MEMPHIS        MOSUNNY   83  75  77 SW3       30.12R HX  90
NASHVILLE      MOSUNNY   77  72  84 S3        30.17R

......ARKANSAS.......

CITY           SKY/WX    TMP DP  RH WIND       PRES   REMARKS
FAYETTEVILLE   SUNNY     70  70 100 SE3       30.13R
FT SMITH       SUNNY     74  70  87 NE5       30.10R
LITTLE ROCK    MOSUNNY   80  74  81 W3        30.11R

......OKLAHOMA.......

CITY           SKY/WX    TMP DP  RH WIND       PRES   REMARKS
TULSA          PTSUNNY   77  71  82 S9        30.06R
PONCA CITY     SUNNY     75  69  81 SW5       30.04S
MCALESTER      MOSUNNY   76  70  82 S3        30.11R
OKLAHOMA CITY  MOSUNNY   74  69  85 S7        30.08R

......IOWA............

CITY           SKY/WX    TMP DP  RH WIND       PRES   REMARKS
DES MOINES     MOSUNNY   68  63  84 VRB3      30.06F
QUAD CITIES    CLOUDY    73  66  78 N5        30.03R

......ILLINOIS........

CITY           SKY/WX    TMP DP  RH WIND       PRES   REMARKS
QUINCY         CLOUDY    71  71 100 SW5       30.03F
CHICAGO        CLOUDY    72  69  90 W7        29.98R




USA.gov is the U.S. government's official web portal to all federal, state and local government web resources and services.